Location: Newark
(54.5667°N, 9.6500°E)
Time: 22:31:09
(UTC+00:00)

NO-84 - Visible Passes

Search period start: 07 December 2019 00:00
Search period end: 17 December 2019 00:00
Orbit: 328 x 505 km, 55.0° (Epoch: 05 December)

Date Brightness Start Highest point End Pass type
(mag) Time Alt. Az. Time Alt. Az. Time Alt. Az.
07 Dec ? 04:20:08 13° SE 04:20:08 13° SE 04:21:10 10° ESE visible
07 Dec ? 05:53:04 13° WSW 05:55:26 57° SSE 05:58:18 10° E visible
08 Dec ? 05:07:02 38° S 05:07:21 40° SSE 05:10:04 10° E visible
08 Dec ? 06:40:48 10° W 06:43:37 83° N 06:46:35 10° E visible
09 Dec ? 04:20:52 17° E 04:20:52 17° E 04:21:46 10° E visible
09 Dec ? 05:53:47 22° WSW 05:55:26 87° SSE 05:58:21 10° E visible
10 Dec ? 05:07:31 64° ESE 05:07:31 64° ESE 05:10:08 10° E visible
10 Dec ? 06:40:50 10° W 06:43:40 81° N 06:46:38 10° E visible
11 Dec ? 04:21:10 16° E 04:21:10 16° E 04:21:53 10° E visible
11 Dec ? 05:54:05 27° W 05:55:27 79° N 05:58:22 10° E visible
12 Dec ? 05:07:40 59° ENE 05:07:40 59° ENE 05:10:06 10° E visible
12 Dec ? 06:40:47 10° W 06:43:38 82° SSW 06:46:36 10° ESE visible
13 Dec ? 04:21:13 15° E 04:21:13 15° E 04:21:50 10° E visible
13 Dec ? 05:54:07 29° W 05:55:24 85° N 05:58:20 10° E visible
14 Dec ? 05:07:39 55° ENE 05:07:39 55° ENE 05:10:02 10° E visible
14 Dec ? 06:40:42 10° W 06:43:29 51° SSW 06:46:23 10° SE visible
15 Dec ? 04:21:08 15° E 04:21:08 15° E 04:21:43 10° E visible
15 Dec ? 05:54:02 30° W 05:55:15 70° SSW 05:58:10 10° ESE visible
16 Dec ? 05:07:31 55° ESE 05:07:31 55° ESE 05:09:54 10° ESE visible
16 Dec ? 06:40:39 10° W 06:43:10 28° SSW 06:45:47 10° SSE visible
